Temp
85 84 76 78 78 78 78 77 77 77 77 77 77 77 77 77 77 76 77 77 77 77 76 76 76 76 75 75 75 75 75 75 75 75 76 76 77 77 76 75 76 78 77
88 86 75 77 78 78 77 77 76 76 77 77 78 77 77 77 77 77 77 77 77 77 76 75 75 75 74 74 74 75 74 74 74 74 75 75 75 76 76 75 75 77 77
87 86 81 76 77 77 76 76 76 77 77 77 77 77 77 77 77 77 77 77 77 76 75 75 74 74 73 74 74 74 74 73 73 73 75 83 78 76 76 75 75 76 76
87 87 85 74 76 76 76 76 76 77 77 77 77 77 77 77 77 77 76 76 76 76 75 74 73 73 73 73 73 73 73 72 72 73 82 84 79 76 76 76 75 76 76
86 87 83 74 76 76 76 76 76 76 77 77 77 77 77 77 76 76 76 76 76 76 75 74 72 72 72 72 72 72 72 71 72 76 82 80 79 77 76 75 76 74 73
85 86 75 74 76 76 75 76 76 76 77 77 77 77 77 76 76 76 75 75 75 75 74 73 71 71 71 71 71 71 70 70 70 81 81 78 76 76 76 75 74 73 73
84 85 82 73 75 76 76 75 75 76 76 76 76 76 76 76 75 75 75 75 75 74 73 72 71 70 70 70 70 69 68 68 78 79 79 79 74 74 75 74 74 74 74
82 81 82 71 70 73 75 76 76 76 75 75 75 76 75 75 75 75 75 75 75 74 72 71 70 69 69 68 68 67 66 66 77 78 78 76 70 74 74 73 73 73 73
80 80 81 81 76 67 69 72 73 75 75 75 75 75 74 74 73 74 74 74 74 73 72 70 69 68 68 67 66 65 64 65 77 76 77 73 69 73 74 73 72 72 72
77 77 77 78 76 77 80 66 67 68 72 73 73 71 70 70 71 71 70 72 73 72 70 69 68 67 66 65 64 64 64 65 75 75 75 67 68 72 73 72 72 72 72
75 75 75 75 76 76 76 74 66 65 66 68 70 67 68 78 77 73 68 69 71 71 70 69 67 66 64 64 63 63 64 73 74 73 72 64 68 71 72 72 72 72 72
72 73 73 73 73 74 75 76 76 79 79 80 80 80 78 79 79 75 69 66 68 68 69 68 66 65 66 73 71 67 71 70 72 71 67 63 66 69 71 71 72 71 71
71 72 72 71 72 73 76 75 77 76 76 78 80 79 78 76 75 73 69 68 70 65 71 68 66 69 70 71 70 70 70 70 70 70 63 61 64 68 69 70 71 71 71
68 69 70 70 71 72 74 76 74 73 74 77 77 76 76 73 72 69 68 68 71 68 67 66 65 64 67 69 68 68 68 68 69 69 64 58 61 65 68 69 70 72 71
65 66 67 67 67 71 72 74 71 69 71 71 70 70 71 72 72 71 68 69 66 67 68 67 66 64 62 64 67 67 67 67 67 68 67 58 60 63 66 68 68 70 71
63 63 63 62 65 72 73 63 62 63 62 62 61 64 66 66 64 64 63 62 62 63 64 62 60 61 60 60 64 65 66 67 67 67 67 66 60 61 62 65 66 67 68
63 60 57 59 61 61 59 57 56 57 57 56 57 60 61 62 63 61 59 57 57 58 58 57 57 58 61 62 61 64 64 66 66 66 66 66 66 61 61 62 62 63 64
62 56 55 58 57 56 55 54 56 57 58 57 58 60 60 61 60 60 58 56 56 55 55 54 54 53 54 53 55 58 58 58 64 65 65 64 64 63 63 61 60 60 62
61 56 54 55 54 53 53 54 54 55 57 57 58 59 59 59 57 57 56 55 55 55 55 56 58 57 57 60 60 61 60 58 62 65 63 62 61 61 60 60 59 58 60
60 56 55 55 54 53 54 54 55 55 55 59 59 60 60 60 61 61 61 60 61 60 60 61 60 61 59 58 61 63 64 64 63 61 62 62 60 60 60 59 58 58 59
59 55 55 55 55 56 55 56 55 54 56 55 55 57 58 58 59 59 59 59 59 57 57 58 60 58 56 57 59 59 63 62 61 61 60 59 58 59 59 59 58 57 58
58 56 55 55 57 59 60 60 58 57 56 55 55 55 55 54 55 56 55 55 56 54 53 54 54 56 55 55 51 55 54 57 57 59 59 58 56 55 56 56 56 56 56
56 56 56 57 59 59 59 58 56 55 55 53 52 51 52 53 53 52 53 52 52 53 50 50 51 51 50 52 52 51 47 46 49 56 55 55 53 52 53 54 54 54 54
54 55 56 56 57 58 59 58 57 55 50 51 50 50 50 51 51 51 51 51 50 50 49 49 51 49 49 46 51 52 51 50 44 43 51 52 51 51 50 51 51 53 54
52 53 54 54 54 57 58 58 55 51 51 51 50 49 48 48 48 48 48 48 47 48 47 47 46 47 48 46 45 46 47 49 49 44 40 42 47 49 50 49 49 51 53
50 51 52 52 52 54 55 55 53 50 50 49 49 48 47 47 47 46 46 46 46 45 45 45 45 43 44 44 45 44 43 42 41 41 39 39 40 44 46 48 49 50 50
MSLP
1015.30 1016.04 1017.00 1017.29 1017.51 1017.77 1017.97 1018.18 1018.37 1018.43 1018.58 1018.69 1018.78 1018.93 1019.10 1019.19 1019.25 1019.21 1019.23 1019.34 1019.58 1019.64 1019.74 1019.85 1019.87 1019.93 1019.90 1019.77 1019.60 1019.58 1019.41 1019.33 1019.19 1019.10 1018.97 1018.95 1018.93 1018.95 1018.84 1018.81 1018.64 1018.65 1018.67
1015.15 1016.01 1017.09 1017.34 1017.60 1017.95 1018.23 1018.42 1018.58 1018.69 1018.92 1018.97 1019.08 1019.25 1019.29 1019.33 1019.38 1019.46 1019.50 1019.72 1019.92 1019.92 1020.09 1020.13 1020.17 1020.24 1020.19 1020.16 1019.99 1019.92 1019.82 1019.73 1019.58 1019.38 1019.31 1019.07 1019.32 1019.36 1019.30 1019.34 1019.22 1019.17 1019.05
1015.49 1015.98 1017.06 1017.49 1017.76 1018.09 1018.37 1018.62 1018.79 1018.88 1019.07 1019.19 1019.37 1019.45 1019.51 1019.60 1019.62 1019.72 1019.82 1020.03 1020.16 1020.27 1020.45 1020.52 1020.59 1020.55 1020.48 1020.37 1020.29 1020.23 1020.08 1020.03 1019.86 1019.55 1019.04 1018.65 1019.43 1019.78 1019.71 1019.68 1019.70 1019.51 1019.47
1015.64 1016.09 1016.73 1017.62 1017.86 1018.22 1018.57 1018.78 1018.91 1019.10 1019.24 1019.37 1019.52 1019.62 1019.76 1019.81 1019.85 1020.00 1020.20 1020.30 1020.35 1020.46 1020.72 1020.78 1020.94 1020.93 1020.76 1020.74 1020.60 1020.45 1020.34 1020.27 1020.03 1019.59 1018.99 1018.93 1019.40 1020.00 1019.99 1020.09 1020.02 1019.98 1019.86
1015.86 1016.22 1016.78 1017.76 1018.06 1018.33 1018.58 1018.96 1019.14 1019.25 1019.41 1019.62 1019.82 1019.97 1020.10 1020.16 1020.23 1020.32 1020.44 1020.54 1020.68 1020.81 1020.92 1021.08 1021.24 1021.22 1021.14 1021.06 1020.88 1020.80 1020.63 1020.47 1020.16 1019.59 1019.29 1019.55 1019.54 1020.17 1020.30 1020.44 1020.37 1020.45 1020.43
1016.24 1016.50 1017.48 1017.99 1018.24 1018.50 1018.80 1019.07 1019.22 1019.39 1019.58 1019.74 1019.90 1020.04 1020.18 1020.30 1020.50 1020.62 1020.69 1020.87 1021.09 1021.11 1021.25 1021.49 1021.59 1021.62 1021.58 1021.42 1021.32 1021.19 1021.07 1020.84 1020.49 1019.77 1019.72 1019.99 1020.23 1020.54 1020.58 1020.73 1020.86 1020.84 1020.74
1016.49 1016.82 1017.50 1018.30 1018.51 1018.69 1018.97 1019.20 1019.41 1019.61 1019.73 1019.86 1019.97 1020.08 1020.22 1020.42 1020.59 1020.67 1020.82 1020.92 1021.17 1021.33 1021.49 1021.79 1021.89 1022.00 1022.00 1021.91 1021.74 1021.67 1021.59 1021.25 1020.49 1020.29 1020.29 1020.29 1021.12 1021.17 1021.03 1020.92 1020.95 1020.96 1020.93
1016.95 1017.31 1017.47 1018.35 1018.67 1018.81 1018.92 1019.09 1019.20 1019.43 1019.72 1019.91 1020.05 1020.20 1020.36 1020.59 1020.72 1020.87 1020.94 1021.02 1021.19 1021.43 1021.78 1022.02 1022.18 1022.28 1022.25 1022.29 1022.30 1022.25 1022.08 1021.63 1020.92 1020.83 1020.82 1021.10 1021.87 1021.54 1021.42 1021.41 1021.33 1021.34 1021.23
1017.58 1017.50 1017.67 1017.85 1018.40 1018.85 1018.94 1018.97 1019.10 1019.24 1019.51 1019.76 1019.96 1020.18 1020.43 1020.71 1020.82 1021.05 1021.16 1021.27 1021.40 1021.64 1021.97 1022.23 1022.36 1022.50 1022.61 1022.69 1022.66 1022.63 1022.49 1022.08 1021.46 1021.52 1021.24 1021.79 1022.27 1021.89 1021.82 1021.84 1021.74 1021.63 1021.61
1018.36 1018.43 1018.47 1018.42 1018.60 1018.64 1018.54 1018.99 1019.22 1019.41 1019.51 1019.71 1020.00 1020.24 1020.45 1020.65 1020.80 1020.99 1021.17 1021.48 1021.69 1021.89 1022.05 1022.26 1022.51 1022.64 1022.80 1022.97 1023.00 1022.97 1022.77 1022.51 1022.05 1021.95 1021.97 1022.90 1022.64 1022.26 1022.11 1022.04 1021.98 1021.94 1021.87
1018.66 1018.90 1018.98 1018.99 1018.82 1018.92 1018.92 1018.99 1019.50 1019.71 1019.86 1019.99 1020.12 1020.31 1020.56 1020.37 1020.67 1021.13 1021.38 1021.47 1021.61 1021.93 1022.26 1022.46 1022.52 1022.70 1022.83 1022.93 1023.03 1023.03 1022.80 1022.63 1022.49 1022.60 1022.66 1023.41 1023.10 1022.72 1022.40 1022.27 1022.20 1022.14 1022.04
1018.95 1019.16 1019.33 1019.36 1019.27 1019.08 1019.00 1018.98 1019.07 1019.05 1019.22 1019.37 1019.50 1019.53 1019.92 1019.95 1020.22 1020.77 1021.40 1021.80 1021.80 1022.11 1022.33 1022.57 1022.79 1022.82 1022.68 1022.67 1022.84 1022.86 1022.72 1022.87 1022.71 1022.86 1023.36 1023.73 1023.47 1023.12 1022.80 1022.51 1022.33 1022.29 1022.23
1019.43 1019.41 1019.58 1019.58 1019.55 1019.36 1018.87 1018.90 1018.88 1019.07 1019.20 1019.21 1019.28 1019.56 1019.78 1020.22 1020.61 1020.89 1021.57 1021.88 1021.96 1022.24 1022.41 1022.80 1023.08 1022.90 1022.84 1022.81 1023.00 1023.19 1023.27 1023.11 1023.08 1023.08 1023.59 1023.86 1023.76 1023.44 1023.11 1022.85 1022.57 1022.42 1022.41
1019.77 1019.84 1019.85 1019.84 1019.58 1019.50 1019.49 1019.11 1019.27 1019.40 1019.46 1019.52 1019.62 1020.07 1020.08 1020.55 1020.89 1021.41 1021.59 1021.93 1022.07 1022.47 1022.70 1023.11 1023.27 1023.37 1023.24 1023.20 1023.30 1023.26 1023.32 1023.33 1023.33 1023.37 1023.75 1024.11 1024.08 1023.76 1023.47 1023.15 1022.76 1022.41 1022.35
1020.21 1020.24 1020.19 1020.03 1019.86 1019.43 1019.47 1019.23 1019.69 1020.16 1020.40 1020.64 1020.87 1021.20 1021.06 1021.05 1021.10 1021.44 1021.91 1022.18 1022.60 1022.74 1022.68 1022.82 1023.23 1023.62 1023.86 1023.62 1023.31 1023.34 1023.38 1023.42 1023.43 1023.42 1023.42 1023.67 1023.90 1023.95 1023.77 1023.47 1023.16 1022.78 1022.46
1020.60 1020.60 1020.76 1020.67 1020.01 1019.13 1018.78 1019.71 1020.27 1020.61 1021.17 1021.76 1022.14 1022.10 1021.97 1021.96 1022.18 1022.32 1022.51 1022.77 1022.92 1023.09 1023.29 1023.53 1023.82 1023.85 1024.01 1024.19 1023.86 1023.64 1023.52 1023.37 1023.32 1023.47 1023.53 1023.53 1023.55 1023.51 1023.58 1023.61 1023.55 1023.39 1023.15
1021.07 1021.41 1021.56 1021.30 1020.90 1020.79 1021.07 1021.30 1021.58 1021.65 1021.79 1021.89 1022.28 1022.58 1022.62 1022.71 1022.81 1023.18 1023.53 1023.75 1023.96 1023.96 1023.92 1024.05 1024.21 1024.27 1024.03 1023.97 1023.92 1023.83 1023.77 1023.52 1023.49 1023.45 1023.52 1023.59 1023.67 1023.96 1023.96 1023.72 1023.56 1023.52 1023.50
1021.34 1021.83 1021.97 1021.86 1021.83 1022.07 1022.32 1022.57 1022.75 1023.11 1023.13 1023.52 1023.47 1023.61 1023.74 1023.64 1023.53 1023.78 1024.24 1024.61 1024.75 1024.61 1024.80 1024.84 1024.93 1024.68 1024.72 1024.59 1024.36 1024.30 1024.31 1024.15 1023.60 1023.75 1023.79 1023.91 1024.01 1024.15 1023.98 1024.22 1024.34 1024.02 1023.62
1021.51 1021.98 1022.12 1022.13 1022.13 1022.28 1022.71 1022.88 1023.26 1023.62 1023.83 1024.08 1024.34 1024.63 1024.56 1024.52 1024.67 1024.67 1024.86 1024.99 1025.12 1025.09 1025.14 1025.11 1025.05 1024.99 1024.86 1024.61 1024.40 1024.18 1024.03 1024.23 1023.84 1023.64 1023.91 1024.22 1024.38 1024.51 1024.48 1024.45 1024.39 1024.19 1024.13
1021.77 1022.20 1022.37 1022.47 1022.61 1022.54 1022.55 1022.72 1022.72 1023.28 1023.77 1023.95 1024.21 1024.79 1025.10 1025.04 1024.95 1024.92 1024.98 1025.14 1025.14 1025.10 1025.13 1025.03 1025.11 1025.00 1025.13 1024.97 1024.38 1023.78 1023.60 1023.61 1023.98 1024.46 1024.49 1024.52 1024.69 1024.72 1024.72 1024.73 1024.58 1024.45 1024.19
1021.91 1022.46 1022.52 1022.70 1022.81 1022.89 1023.04 1023.19 1023.40 1023.64 1024.29 1024.91 1025.30 1025.48 1025.26 1025.01 1025.26 1025.67 1025.99 1026.05 1026.03 1026.02 1026.39 1025.97 1025.54 1025.72 1025.77 1025.40 1024.38 1024.06 1023.71 1024.23 1024.51 1024.51 1024.95 1025.11 1025.35 1025.20 1024.99 1024.78 1024.81 1024.69 1024.50
1022.18 1022.63 1023.03 1023.02 1022.85 1022.64 1022.43 1022.64 1023.26 1024.02 1024.76 1025.42 1025.91 1025.89 1026.16 1026.46 1026.26 1026.06 1026.44 1026.87 1026.78 1026.97 1027.04 1026.97 1026.70 1026.20 1026.44 1026.36 1025.93 1024.73 1024.32 1024.66 1024.87 1025.11 1025.13 1025.47 1025.74 1025.99 1025.67 1025.44 1025.25 1025.00 1024.79
1022.28 1022.48 1022.86 1023.06 1023.03 1023.12 1023.26 1023.37 1023.85 1024.64 1025.07 1025.71 1026.38 1026.86 1026.92 1026.91 1027.15 1027.14 1027.22 1027.45 1027.60 1027.76 1027.83 1027.95 1027.81 1027.48 1027.45 1027.39 1027.12 1026.64 1026.06 1025.93 1025.86 1025.38 1025.66 1025.89 1026.23 1026.27 1026.10 1025.82 1025.73 1025.34 1024.95
1022.60 1022.92 1023.08 1023.34 1023.36 1023.42 1023.39 1023.66 1023.73 1024.47 1025.08 1025.91 1026.73 1027.34 1027.78 1027.85 1027.83 1028.00 1027.96 1028.28 1028.37 1028.50 1028.60 1028.60 1028.68 1028.58 1028.42 1028.37 1028.12 1028.06 1028.05 1027.89 1027.26 1026.59 1026.15 1026.38 1026.63 1026.65 1026.58 1026.25 1025.93 1025.40 1025.04
1022.99 1023.13 1023.41 1023.72 1023.86 1023.83 1023.91 1024.13 1024.25 1025.13 1025.91 1026.49 1027.06 1027.58 1028.26 1028.63 1028.75 1028.52 1028.66 1028.61 1029.07 1029.27 1029.71 1029.80 1029.66 1029.38 1029.36 1029.36 1029.49 1029.07 1028.64 1028.45 1028.29 1028.35 1027.23 1026.98 1027.13 1026.84 1026.58 1026.55 1026.21 1025.72 1025.13
1023.38 1023.58 1023.78 1023.96 1024.12 1024.22 1024.54 1024.86 1025.01 1025.51 1026.04 1026.55 1026.94 1027.65 1028.29 1028.80 1029.39 1029.56 1029.64 1029.68 1029.80 1029.92 1030.07 1030.16 1030.50 1030.72 1030.54 1030.24 1030.31 1030.10 1030.07 1029.85 1029.64 1029.37 1028.66 1028.10 1027.66 1026.80 1026.83 1026.38 1025.91 1025.63 1025.37
Wind_Speed
6 15 9 11 12 10 10 10 11 11 12 11 11 11 10 10 9 9 13 14 14 14 15 14 14 13 13 12 12 12 12 12 12 11 12 14 15 15 16 16 12 14 17
9 15 9 10 12 11 10 10 9 9 11 10 10 9 9 10 9 12 13 12 13 14 14 14 14 13 13 12 12 12 11 10 9 6 4 13 13 13 14 14 14 13 16
7 13 12 9 12 11 10 10 9 9 9 9 9 9 8 8 7 11 11 11 12 13 14 14 13 13 12 12 10 10 10 9 7 6 9 5 11 11 12 12 12 14 15
6 10 12 9 13 12 11 9 8 9 9 8 8 7 7 8 10 10 9 10 12 12 12 14 13 13 13 12 10 9 9 7 6 8 2 8 9 10 11 11 12 13 13
7 9 10 10 9 10 12 9 9 8 8 8 7 6 6 7 7 7 8 11 12 12 13 13 13 13 13 12 11 10 9 7 7 7 7 7 5 9 10 11 10 13 13
7 6 13 8 7 9 9 9 9 9 9 8 7 7 7 7 6 6 6 11 10 12 14 13 13 14 13 12 11 11 10 10 12 6 6 10 11 12 13 12 10 10 10
6 4 9 6 5 7 9 10 10 8 8 8 7 7 8 7 7 8 9 8 11 13 13 13 13 14 13 13 12 12 11 12 8 6 5 9 9 9 9 9 8 8 9
7 4 6 7 2 3 7 8 10 11 8 7 7 5 6 7 7 7 8 11 12 12 12 12 12 12 13 13 13 13 12 10 3 6 6 8 12 11 11 11 9 8 8
7 5 4 4 9 5 5 6 6 7 9 8 6 5 5 5 6 7 7 9 10 11 12 12 12 11 12 12 12 11 11 11 7 5 5 8 13 11 11 11 10 9 9
7 6 5 2 3 5 7 7 3 5 3 6 5 5 6 6 8 8 9 9 10 10 11 11 10 9 9 10 10 9 8 9 7 6 6 7 12 11 10 10 10 10 9
5 6 6 5 4 2 4 0 3 4 3 2 4 6 5 7 8 8 8 9 11 10 8 7 9 7 6 6 6 5 8 5 6 5 6 12 12 11 10 9 9 9 8
6 6 6 6 5 4 3 4 4 5 6 7 8 9 8 5 3 5 7 7 9 8 8 8 7 4 3 4 3 1 4 5 4 4 6 12 13 12 12 11 8 7 6
7 6 7 7 6 5 4 4 3 2 2 3 6 4 4 2 4 4 4 2 4 5 4 4 2 4 6 5 4 4 4 4 3 3 7 9 11 12 12 11 10 6 5
7 8 9 8 6 5 4 3 1 0 1 2 3 5 2 2 3 3 2 2 2 2 3 2 2 4 3 4 4 4 4 3 3 3 5 8 9 10 11 11 9 7 5
7 8 8 8 6 3 0 2 3 6 6 8 8 9 7 5 3 3 3 2 2 1 1 2 3 3 4 4 3 3 2 2 2 1 1 7 4 9 12 12 13 12 11
7 8 8 8 6 4 6 11 7 7 8 8 8 9 10 7 6 6 5 5 5 4 4 5 3 2 3 3 3 2 2 2 2 2 2 0 5 4 6 9 12 13 13
7 9 9 9 9 11 11 10 8 7 7 7 7 9 10 8 7 7 5 5 5 4 5 4 3 2 2 2 3 3 4 4 4 4 3 3 3 3 6 7 7 8 11
6 8 8 8 11 13 11 9 9 9 9 8 7 9 12 11 11 9 7 7 6 5 5 5 4 3 3 3 4 4 3 4 5 4 4 5 5 6 4 10 13 12 10
5 6 7 8 11 12 10 9 9 10 8 8 8 8 12 11 10 8 6 5 4 4 4 3 5 3 3 4 4 4 3 2 3 3 5 6 7 6 5 9 9 8 12
6 6 7 7 10 10 8 8 8 9 8 8 9 8 10 8 10 7 7 8 7 7 7 5 6 4 6 6 6 4 2 3 3 5 5 6 6 7 7 8 6 7 10
7 6 7 8 9 7 7 7 6 8 9 9 9 11 11 10 11 10 8 8 8 8 9 10 6 7 7 9 5 5 2 4 5 6 6 6 8 8 8 7 6 5 7
7 7 6 6 6 6 6 8 6 8 9 9 8 11 12 12 12 11 10 8 9 8 10 10 9 6 6 9 5 4 2 3 6 5 5 6 9 8 8 10 9 9 7
8 7 6 6 7 7 9 9 9 9 8 8 8 9 10 13 12 10 11 9 9 8 7 9 9 11 6 6 11 6 4 4 7 3 4 7 9 8 7 8 11 9 8
7 6 7 7 8 7 9 9 10 8 9 8 9 9 8 11 12 11 11 10 9 7 8 7 8 7 7 7 4 7 6 3 4 5 5 3 7 8 10 7 10 7 8
7 7 7 7 7 6 6 8 8 11 9 8 8 11 11 10 11 11 10 10 9 7 8 8 8 8 6 5 5 4 4 5 6 4 7 9 7 6 4 8 8 7 8
7 7 7 9 9 9 8 8 11 11 11 8 9 7 7 7 7 9 9 8 8 7 7 6 7 8 6 6 5 5 4 4 5 4 7 9 10 6 8 7 5 5 6
Wind_Direction
151 130 148 157 140 129 120 116 116 118 114 110 108 106 103 95 84 76 91 82 76 72 67 64 59 52 49 44 44 44 50 54 55 58 67 62 54 53 47 34 45 52 50
141 141 153 158 140 140 128 122 115 105 108 107 106 106 99 99 85 96 87 84 82 75 69 62 56 51 47 42 39 36 41 47 45 28 78 102 63 54 54 50 45 49 50
148 139 158 153 137 137 134 131 124 118 115 111 109 103 95 91 98 98 89 96 88 77 70 60 51 45 42 40 41 43 41 36 22 335 308 90 78 52 55 55 50 54 50
160 154 159 152 139 141 137 131 130 133 130 124 118 109 104 97 107 104 100 101 90 77 66 60 48 41 38 35 34 40 43 33 349 308 322 41 74 55 50 51 55 47 54
139 160 131 147 148 147 139 144 145 141 138 134 127 119 114 107 104 101 107 91 84 73 64 55 45 40 37 32 35 36 33 13 326 312 53 20 40 64 53 35 62 56 52
121 168 119 141 164 152 141 158 159 156 154 148 141 138 129 116 108 98 113 100 83 74 64 52 44 39 39 39 38 36 24 355 311 44 38 87 54 46 55 54 64 59 54
105 147 138 150 191 175 174 178 172 171 167 159 156 158 135 126 120 111 86 80 88 74 68 56 48 41 37 36 39 36 20 351 2 46 45 41 39 24 35 41 37 39 43
90 102 130 154 247 267 205 220 182 175 178 184 169 169 152 137 125 107 93 88 88 83 76 65 56 48 45 40 35 28 16 355 0 45 43 63 5 24 23 21 20 17 29
58 78 109 169 183 230 281 236 236 201 182 200 186 158 155 147 123 94 89 91 90 87 84 72 61 50 46 44 38 27 10 347 22 35 26 45 3 17 23 21 17 15 11
58 46 34 40 343 229 230 218 253 307 245 189 166 154 157 156 142 136 127 98 97 96 104 93 77 64 56 47 43 25 346 303 30 23 53 23 7 8 13 17 13 11 8
49 33 24 10 344 285 261 177 248 243 348 266 207 196 183 210 177 162 94 116 117 115 115 112 109 96 102 91 61 12 320 25 12 21 48 12 9 6 6 6 7 4 7
22 17 6 352 339 308 225 237 241 239 230 218 223 207 212 224 172 142 124 134 124 131 132 124 114 142 186 37 49 302 33 15 31 25 63 17 10 5 3 358 360 3 12
0 12 5 351 335 302 248 221 196 221 234 251 247 242 205 125 125 122 127 152 135 164 140 121 68 350 45 37 43 31 12 359 8 26 73 31 12 6 4 0 348 360 5
6 7 5 356 339 331 306 221 240 68 271 261 49 28 28 142 146 125 106 152 145 126 110 101 71 47 27 62 51 43 39 17 18 6 84 46 8 4 5 1 355 343 344
14 12 9 7 356 348 316 115 92 50 46 44 46 43 25 25 38 73 45 50 46 30 1 143 103 67 18 7 59 52 43 37 1 8 344 114 45 5 359 360 359 360 356
13 19 16 9 337 133 105 71 68 70 68 57 45 34 40 43 40 41 49 46 47 36 45 47 39 57 65 355 336 6 335 315 317 318 328 134 138 94 39 11 2 355 351
20 31 19 16 32 57 59 59 55 69 77 74 71 50 48 38 68 70 56 48 35 24 50 59 55 36 15 19 300 330 322 322 328 345 345 347 10 100 39 34 23 6 351
44 43 36 51 61 64 66 57 60 57 61 56 53 49 47 48 60 58 61 51 37 44 41 43 18 50 21 3 350 349 329 318 333 342 346 8 7 1 15 30 359 351 351
74 80 77 80 89 92 83 82 74 68 65 62 53 44 50 58 57 62 59 60 72 66 56 42 51 41 17 357 329 308 291 277 332 9 15 26 31 21 7 5 359 340 352
98 95 102 103 105 109 108 107 106 99 85 78 77 69 60 52 57 68 66 55 45 45 38 28 37 47 20 353 317 290 292 45 34 48 35 56 50 33 25 14 0 355 352
113 109 124 125 126 116 102 92 83 92 86 81 73 62 66 68 64 58 53 50 54 49 38 27 28 26 25 357 350 1 73 79 71 34 42 35 22 20 10 3 359 347 339
123 119 115 126 144 139 129 118 108 102 93 94 83 76 71 63 58 69 68 57 50 56 46 34 27 36 42 26 356 287 15 156 33 76 59 33 35 9 3 2 2 350 343
138 134 137 134 123 107 111 112 110 111 107 98 83 74 66 71 69 66 67 65 60 58 56 40 32 30 33 35 29 19 354 3 336 58 53 21 21 360 3 337 352 340 341
132 126 121 117 116 125 140 142 133 118 113 102 97 89 76 68 70 69 69 66 62 54 54 47 41 43 31 31 32 24 23 5 351 321 9 10 360 345 333 357 329 331 330
136 129 130 128 125 121 114 121 110 111 111 111 106 100 91 77 70 70 67 68 63 55 49 47 39 37 39 38 29 2 13 340 42 314 309 329 329 340 358 323 308 331 316
130 130 134 131 119 114 116 118 120 127 128 129 123 113 102 92 77 69 68 65 68 68 61 55 48 40 30 42 19 26 18 351 347 331 314 318 318 321 322 302 311 303 307